Total_Precipitation_Accumulation
0.83 0.94 1.03 1.05 1.10 1.19 1.28 1.34 1.39 1.35 1.33 1.26 1.05 0.98 0.95 0.93 0.97 0.91 0.95 0.76 0.51 0.42 0.41 0.43 0.44 0.48 0.60 0.78 0.95 1.11 1.33 1.49 1.60 1.70 1.78 1.90 2.01 2.13
0.93 1.05 1.08 1.06 1.07 1.15 1.29 1.45 1.55 1.54 1.39 1.16 1.04 1.07 1.10 0.99 0.94 0.80 0.76 0.73 0.55 0.43 0.39 0.39 0.39 0.41 0.46 0.60 0.75 0.88 1.04 1.16 1.29 1.41 1.48 1.53 1.59 1.73
0.85 0.96 1.04 1.06 1.10 1.13 1.23 1.31 1.46 1.59 1.46 1.24 1.19 1.24 1.29 1.25 1.09 0.91 0.76 0.70 0.59 0.47 0.38 0.37 0.37 0.42 0.48 0.55 0.66 0.77 0.85 0.92 1.04 1.17 1.29 1.38 1.44 1.49
0.89 0.90 0.88 0.93 1.04 1.05 1.12 1.15 1.26 1.46 1.42 1.32 1.35 1.38 1.41 1.35 1.26 1.08 0.89 0.78 0.72 0.56 0.42 0.37 0.36 0.38 0.42 0.42 0.50 0.65 0.77 0.84 0.87 0.90 0.97 1.09 1.23 1.34
0.81 0.81 0.77 0.80 0.85 0.93 1.03 1.01 1.03 1.15 1.29 1.35 1.44 1.52 1.59 1.48 1.31 1.17 1.04 0.95 0.75 0.64 0.53 0.43 0.40 0.38 0.39 0.39 0.43 0.51 0.64 0.77 0.85 0.90 0.92 0.98 1.04 1.13
0.71 0.68 0.69 0.72 0.75 0.82 0.91 0.95 0.97 1.06 1.19 1.27 1.42 1.62 1.64 1.68 1.56 1.34 1.24 1.17 0.92 0.67 0.62 0.55 0.49 0.44 0.40 0.36 0.37 0.44 0.54 0.69 0.85 0.93 0.99 1.08 1.14 1.15
0.70 0.64 0.60 0.58 0.61 0.68 0.69 0.76 0.86 0.95 0.98 1.07 1.21 1.44 1.57 1.69 1.65 1.45 1.30 1.31 1.17 0.87 0.73 0.67 0.64 0.57 0.51 0.45 0.37 0.36 0.44 0.58 0.78 0.93 1.02 1.12 1.24 1.30
0.65 0.63 0.56 0.49 0.50 0.50 0.47 0.53 0.62 0.69 0.79 0.94 1.00 1.20 1.41 1.51 1.64 1.71 1.57 1.42 1.35 1.19 1.10 1.00 0.87 0.81 0.68 0.54 0.45 0.35 0.34 0.44 0.57 0.72 0.86 1.00 1.13 1.29
0.61 0.63 0.50 0.42 0.49 0.50 0.47 0.43 0.44 0.46 0.55 0.74 0.87 0.95 1.19 1.41 1.60 1.75 1.75 1.68 1.56 1.47 1.42 1.35 1.13 0.96 0.81 0.69 0.60 0.46 0.38 0.34 0.38 0.47 0.57 0.72 0.84 0.97
0.55 0.61 0.63 0.59 0.58 0.61 0.61 0.55 0.48 0.46 0.48 0.54 0.61 0.76 1.03 1.41 1.63 1.68 1.80 1.83 1.77 1.69 1.63 1.59 1.42 1.23 1.06 0.93 0.83 0.63 0.51 0.43 0.39 0.39 0.42 0.48 0.60 0.72
0.58 0.62 0.66 0.64 0.62 0.53 0.54 0.53 0.52 0.52 0.47 0.49 0.52 0.62 0.79 1.06 1.45 1.60 1.64 1.59 1.54 1.37 1.26 1.30 1.32 1.32 1.28 1.17 1.02 0.88 0.72 0.59 0.52 0.51 0.49 0.49 0.55 0.65
0.72 0.72 0.65 0.59 0.55 0.49 0.51 0.57 0.53 0.50 0.55 0.56 0.56 0.55 0.58 0.73 1.03 1.27 1.33 1.32 1.22 1.20 1.00 0.96 0.98 1.06 1.16 1.09 0.98 0.93 0.87 0.85 0.76 0.64 0.58 0.56 0.64 0.63
0.80 0.81 0.75 0.65 0.53 0.50 0.52 0.58 0.58 0.58 0.69 0.72 0.70 0.68 0.70 0.73 0.82 1.00 1.19 1.25 1.16 0.98 0.89 0.90 0.88 0.89 0.89 0.86 0.85 0.82 0.84 0.89 0.87 0.82 0.77 0.75 0.78 0.76
0.85 0.85 0.85 0.68 0.53 0.51 0.49 0.48 0.51 0.51 0.59 0.68 0.67 0.64 0.65 0.66 0.70 0.84 1.02 1.14 1.20 1.05 0.95 0.99 0.97 0.90 0.84 0.75 0.71 0.68 0.71 0.82 0.95 1.05 1.01 0.99 0.97 1.03
0.82 0.83 0.78 0.67 0.55 0.49 0.52 0.52 0.49 0.49 0.56 0.63 0.63 0.55 0.52 0.57 0.69 0.84 0.99 1.11 1.15 1.09 0.97 0.96 0.97 0.94 0.90 0.78 0.66 0.62 0.66 0.72 0.82 1.00 1.18 1.23 1.18 1.17
0.87 0.84 0.76 0.72 0.63 0.58 0.61 0.56 0.51 0.57 0.62 0.63 0.65 0.67 0.66 0.70 0.75 0.81 0.91 1.01 1.08 1.02 0.95 0.95 1.00 1.04 0.96 0.80 0.76 0.69 0.67 0.70 0.69 0.79 1.04 1.29 1.47 1.55
1.12 1.10 1.03 0.95 0.84 0.77 0.77 0.77 0.77 0.80 0.76 0.75 0.80 0.86 0.85 0.79 0.77 0.81 0.94 0.98 0.94 0.88 0.89 0.94 1.01 1.11 1.09 0.93 0.83 0.75 0.73 0.69 0.62 0.66 0.82 1.00 1.22 1.45
1.05 1.03 1.01 0.96 0.89 0.89 0.92 0.93 0.91 0.91 0.89 0.90 0.92 0.96 0.98 0.91 0.83 0.83 0.93 0.98 0.92 0.86 0.84 0.87 1.02 1.18 1.19 1.06 0.76 0.65 0.65 0.64 0.65 0.75 0.83 0.82 0.88 0.99
1.03 1.02 1.00 1.00 0.96 0.95 0.98 0.98 0.95 0.96 1.02 1.04 1.06 1.07 1.12 1.11 1.07 1.00 0.98 1.01 0.99 0.97 0.91 0.91 0.98 1.02 0.94 0.80 0.70 0.54 0.55 0.59 0.69 0.79 0.85 0.78 0.70 0.75
1.01 1.04 1.03 1.03 1.01 0.98 0.96 0.98 1.00 1.04 1.05 1.04 1.08 1.10 1.16 1.16 1.17 1.09 1.02 0.99 1.01 1.03 1.02 0.94 0.87 0.83 0.79 0.71 0.68 0.65 0.57 0.63 0.71 0.74 0.78 0.80 0.75 0.71
1.02 1.01 0.98 0.93 0.92 0.94 0.94 0.93 0.93 0.94 0.96 1.03 1.03 1.03 1.08 1.07 1.03 0.99 0.99 0.98 0.98 1.04 0.96 0.79 0.75 0.84 0.99 1.10 0.92 0.68 0.64 0.65 0.76 0.84 0.89 0.94 0.89 0.85
0.99 0.93 0.92 0.87 0.87 0.90 0.92 0.90 0.89 0.91 0.95 1.04 1.04 1.02 1.03 1.00 0.94 0.93 0.97 0.99 0.96 0.95 0.95 0.92 1.02 1.11 1.13 1.07 0.88 0.74 0.76 0.83 0.90 0.95 0.96 0.88 0.80 0.74
0.92 0.89 0.87 0.83 0.81 0.82 0.83 0.84 0.87 0.92 0.96 1.01 1.04 1.06 1.07 1.04 0.97 0.96 0.99 1.03 1.03 1.05 1.17 1.21 1.17 1.12 1.05 1.05 1.02 0.93 0.90 0.98 1.10 1.13 1.05 0.90 0.66 0.51